Total_Precipitation_Accumulation
0.14 0.32 0.34 0.25 0.43 0.91 0.48 0.42 0.38 0.29 0.30 0.25 0.17 0.12 0.15 0.20 0.29 0.34 0.29 0.23 0.44 0.46 0.12 0.06 0.03 0.03 0.03 0.05 0.06 0.09 0.21 0.13 0.10 0.18 0.19 0.12 0.05 0.05 0.04 0.06 0.10 0.11 0.25 0.20 0.26 0.34 0.14 0.01 0.04 0.09 0.11 0.09 0.01 0.00
0.19 0.24 0.46 0.25 0.33 0.69 0.47 0.42 0.43 0.29 0.27 0.24 0.20 0.15 0.17 0.21 0.28 0.41 0.42 0.26 0.37 0.78 0.28 0.02 0.01 0.01 0.01 0.03 0.11 0.17 0.16 0.14 0.09 0.06 0.07 0.13 0.12 0.13 0.14 0.12 0.13 0.14 0.09 0.12 0.10 0.13 0.11 0.08 0.05 0.04 0.02 0.01 0.00 0.00
0.12 0.20 0.59 0.30 0.31 0.57 0.46 0.42 0.42 0.29 0.29 0.28 0.20 0.17 0.18 0.22 0.28 0.40 0.43 0.35 0.61 0.84 0.39 0.06 0.00 0.00 0.01 0.01 0.06 0.19 0.09 0.07 0.12 0.16 0.23 0.25 0.22 0.14 0.18 0.15 0.21 0.16 0.14 0.28 0.26 0.09 0.05 0.08 0.06 0.03 0.02 0.01 0.00 0.00
0.11 0.25 0.77 0.36 0.35 0.51 0.46 0.49 0.45 0.24 0.19 0.28 0.20 0.16 0.17 0.18 0.28 0.35 0.44 0.52 0.68 0.64 0.35 0.05 0.00 0.01 0.01 0.02 0.05 0.07 0.13 0.17 0.15 0.20 0.24 0.20 0.14 0.11 0.11 0.12 0.14 0.17 0.24 0.35 0.28 0.10 0.04 0.03 0.03 0.02 0.01 0.01 0.00 0.00
0.13 0.32 0.78 0.46 0.38 0.41 0.43 0.49 0.46 0.26 0.16 0.22 0.18 0.14 0.17 0.21 0.32 0.47 0.49 0.68 0.65 0.52 0.29 0.05 0.03 0.02 0.00 0.01 0.03 0.07 0.19 0.30 0.38 0.40 0.32 0.12 0.04 0.08 0.06 0.05 0.02 0.01 0.04 0.09 0.07 0.10 0.05 0.02 0.03 0.01 0.00 0.00 0.00 0.00
0.16 0.41 0.67 0.51 0.37 0.32 0.38 0.48 0.43 0.25 0.16 0.25 0.22 0.18 0.20 0.32 0.53 1.05 1.22 0.66 0.63 0.66 0.44 0.14 0.10 0.08 0.05 0.04 0.06 0.11 0.18 0.30 0.41 0.40 0.28 0.15 0.03 0.09 0.15 0.04 0.00 0.00 0.01 0.01 0.03 0.02 0.03 0.06 0.07 0.04 0.00 0.00 0.00 0.00
0.36 0.51 0.64 0.41 0.30 0.31 0.45 0.45 0.35 0.21 0.24 0.32 0.24 0.19 0.24 0.40 0.71 0.91 0.70 0.24 0.27 0.52 0.48 0.12 0.11 0.18 0.06 0.15 0.20 0.19 0.23 0.27 0.26 0.28 0.24 0.11 0.07 0.20 0.29 0.05 0.02 0.00 0.01 0.01 0.05 0.04 0.01 0.00 0.00 0.00 0.00 0.00 0.00 0.00
0.49 0.56 0.55 0.34 0.32 0.41 0.49 0.39 0.28 0.25 0.36 0.44 0.29 0.23 0.39 0.67 0.86 0.55 0.21 0.26 0.40 0.54 0.17 0.13 0.14 0.22 0.10 0.17 0.18 0.14 0.19 0.21 0.30 0.31 0.20 0.07 0.08 0.15 0.17 0.04 0.01 0.00 0.00 0.00 0.00 0.00 0.00 0.00 0.00 0.00 0.00 0.00 0.00 0.00
0.65 0.63 0.39 0.33 0.39 0.44 0.41 0.34 0.30 0.37 0.67 0.47 0.36 0.59 1.08 1.07 0.80 0.50 0.28 0.41 0.57 0.62 0.35 0.08 0.09 0.16 0.10 0.18 0.13 0.16 0.19 0.33 0.28 0.20 0.08 0.08 0.15 0.17 0.04 0.01 0.00 0.00 0.00 0.00 0.00 0.00 0.00 0.00 0.00 0.00 0.00 0.00 0.00 0.00
0.58 0.37 0.34 0.37 0.44 0.43 0.37 0.31 0.36 0.65 0.52 0.24 0.37 0.78 1.14 0.64 0.52 0.55 0.65 0.83 0.72 0.50 0.18 0.06 0.06 0.13 0.14 0.19 0.22 0.22 0.24 0.20 0.16 0.08 0.07 0.14 0.05 0.02 0.01 0.00 0.00 0.00 0.00 0.00 0.00 0.00 0.00 0.00 0.00 0.00 0.00 0.00 0.00 0.00
0.38 0.33 0.31 0.38 0.39 0.30 0.21 0.22 0.41 0.43 0.16 0.17 0.26 0.56 0.67 0.66 0.51 0.38 0.40 0.38 0.31 0.18 0.04 0.02 0.05 0.09 0.11 0.24 0.31 0.31 0.28 0.25 0.17 0.08 0.06 0.10 0.04 0.01 0.00 0.00 0.00 0.00 0.00 0.00 0.00 0.00 0.00 0.00 0.00 0.00 0.00 0.00 0.00 0.00
0.35 0.29 0.30 0.25 0.17 0.10 0.09 0.19 0.47 0.15 0.07 0.06 0.18 0.43 0.44 0.33 0.26 0.22 0.19 0.11 0.10 0.06 0.02 0.04 0.05 0.10 0.14 0.12 0.28 0.32 0.38 0.28 0.23 0.24 0.19 0.09 0.06 0.01 0.00 0.00 0.00 0.00 0.00 0.00 0.00 0.00 0.00 0.00 0.00 0.00 0.00 0.00 0.00 0.00
0.34 0.31 0.22 0.19 0.16 0.13 0.15 0.19 0.10 0.03 0.05 0.10 0.20 0.29 0.28 0.22 0.20 0.09 0.09 0.03 0.08 0.06 0.04 0.03 0.09 0.09 0.09 0.08 0.11 0.14 0.25 0.22 0.21 0.30 0.17 0.04 0.01 0.00 0.00 0.00 0.00 0.00 0.00 0.00 0.00 0.00 0.00 0.00 0.00 0.00 0.00 0.00 0.00 0.00
0.10 0.07 0.07 0.08 0.09 0.09 0.08 0.06 0.02 0.01 0.05 0.12 0.19 0.17 0.20 0.15 0.06 0.03 0.07 0.07 0.04 0.03 0.05 0.10 0.18 0.13 0.08 0.08 0.05 0.07 0.04 0.02 0.05 0.07 0.04 0.04 0.00 0.00 0.00 0.00 0.00 0.00 0.00 0.00 0.00 0.00 0.00 0.00 0.00 0.00 0.00 0.00 0.00 0.00
0.05 0.03 0.02 0.03 0.02 0.02 0.01 0.00 0.00 0.01 0.02 0.04 0.07 0.13 0.04 0.06 0.03 0.02 0.01 0.02 0.07 0.11 0.08 0.26 0.52 0.52 0.33 0.19 0.11 0.05 0.05 0.02 0.00 0.01 0.03 0.02 0.01 0.00 0.00 0.00 0.00 0.00 0.00 0.00 0.00 0.00 0.00 0.00 0.00 0.00 0.00 0.00 0.00 0.00
0.01 0.02 0.03 0.02 0.02 0.01 0.00 0.01 0.01 0.02 0.01 0.01 0.03 0.06 0.04 0.08 0.06 0.04 0.05 0.03 0.06 0.23 0.29 0.29 0.33 0.29 0.26 0.15 0.15 0.03 0.01 0.01 0.03 0.03 0.04 0.03 0.03 0.00 0.01 0.01 0.00 0.00 0.00 0.00 0.00 0.00 0.00 0.00 0.00 0.00 0.00 0.00 0.00 0.00
0.01 0.02 0.01 0.00 0.00 0.00 0.00 0.01 0.03 0.02 0.01 0.01 0.04 0.03 0.03 0.13 0.13 0.10 0.12 0.09 0.13 0.30 0.24 0.27 0.32 0.08 0.04 0.07 0.06 0.02 0.05 0.05 0.05 0.04 0.04 0.03 0.04 0.03 0.04 0.03 0.00 0.00 0.00 0.00 0.00 0.00 0.00 0.00 0.00 0.00 0.00 0.00 0.00 0.00
0.01 0.00 0.00 0.00 0.00 0.00 0.00 0.00 0.01 0.00 0.01 0.03 0.08 0.05 0.02 0.05 0.09 0.12 0.14 0.15 0.32 0.44 0.30 0.31 0.10 0.07 0.07 0.11 0.07 0.05 0.07 0.07 0.04 0.02 0.02 0.03 0.04 0.05 0.06 0.05 0.03 0.02 0.01 0.00 0.00 0.00 0.00 0.00 0.00 0.00 0.00 0.00 0.00 0.00
0.01 0.00 0.00 0.00 0.00 0.01 0.02 0.00 0.01 0.01 0.02 0.02 0.02 0.02 0.03 0.05 0.06 0.18 0.21 0.19 0.29 0.41 0.32 0.17 0.16 0.06 0.06 0.09 0.08 0.08 0.07 0.05 0.03 0.01 0.02 0.03 0.04 0.05 0.06 0.07 0.07 0.05 0.04 0.03 0.01 0.01 0.02 0.02 0.02 0.01 0.01 0.01 0.01 0.01
0.00 0.00 0.00 0.00 0.00 0.00 0.00 0.00 0.00 0.01 0.01 0.01 0.02 0.01 0.02 0.04 0.03 0.07 0.14 0.18 0.23 0.19 0.11 0.07 0.05 0.06 0.06 0.08 0.08 0.08 0.08 0.06 0.05 0.05 0.04 0.04 0.04 0.03 0.02 0.02 0.02 0.02 0.02 0.02 0.02 0.02 0.02 0.01 0.01 0.00 0.01 0.02 0.02 0.03
0.00 0.00 0.00 0.00 0.00 0.00 0.00 0.00 0.01 0.00 0.00 0.01 0.01 0.01 0.01 0.00 0.01 0.01 0.01 0.04 0.13 0.18 0.14 0.10 0.09 0.11 0.10 0.10 0.10 0.09 0.08 0.06 0.05 0.03 0.04 0.05 0.05 0.01 0.01 0.01 0.00 0.00 0.01 0.00 0.01 0.01 0.01 0.01 0.00 0.00 0.00 0.00 0.01 0.01
0.00 0.00 0.00 0.00 0.00 0.00 0.00 0.00 0.00 0.00 0.01 0.01 0.01 0.01 0.03 0.03 0.01 0.00 0.00 0.00 0.04 0.08 0.10 0.08 0.08 0.07 0.06 0.07 0.06 0.03 0.03 0.02 0.02 0.02 0.02 0.02 0.03 0.03 0.03 0.04 0.03 0.02 0.02 0.02 0.02 0.01 0.01 0.01 0.00 0.00 0.00 0.00 0.00 0.00
0.00 0.00 0.00 0.00 0.00 0.00 0.00 0.00 0.00 0.01 0.00 0.01 0.01 0.02 0.01 0.01 0.00 0.00 0.00 0.01 0.03 0.08 0.07 0.03 0.04 0.03 0.02 0.02 0.01 0.01 0.00 0.00 0.00 0.00 0.01 0.02 0.02 0.02 0.02 0.02 0.02 0.03 0.03 0.04 0.05 0.07 0.04 0.02 0.01 0.01 0.01 0.00 0.00 0.01
0.00 0.00 0.00 0.00 0.00 0.00 0.00 0.00 0.00 0.00 0.00 0.00 0.01 0.00 0.01 0.00 0.00 0.00 0.01 0.02 0.04 0.04 0.02 0.02 0.01 0.02 0.02 0.03 0.03 0.03 0.02 0.00 0.00 0.00 0.01 0.01 0.02 0.02 0.01 0.02 0.03 0.04 0.05 0.06 0.04 0.06 0.04 0.04 0.03 0.02 0.02 0.02 0.02 0.02
0.00 0.00 0.00 0.00 0.00 0.00 0.00 0.00 0.00 0.00 0.00 0.00 0.00 0.00 0.00 0.00 0.00 0.00 0.01 0.03 0.03 0.05 0.04 0.03 0.02 0.03 0.04 0.04 0.04 0.03 0.01 0.00 0.01 0.01 0.01 0.02 0.03 0.08 0.06 0.04 0.03 0.04 0.04 0.05 0.05 0.05 0.04 0.03 0.03 0.02 0.02 0.03 0.03 0.03
0.00 0.00 0.00 0.00 0.00 0.00 0.00 0.00 0.01 0.00 0.00 0.00 0.00 0.00 0.00 0.00 0.00 0.01 0.04 0.08 0.08 0.06 0.06 0.07 0.05 0.03 0.03 0.02 0.01 0.00 0.00 0.00 0.01 0.02 0.02 0.01 0.02 0.03 0.04 0.05 0.07 0.04 0.02 0.04 0.04 0.03 0.02 0.01 0.01 0.01 0.01 0.04 0.05 0.04
0.00 0.00 0.00 0.00 0.00 0.00 0.00 0.01 0.00 0.00 0.00 0.01 0.02 0.00 0.00 0.00 0.01 0.04 0.05 0.07 0.08 0.07 0.04 0.03 0.02 0.02 0.02 0.01 0.00 0.01 0.00 0.00 0.02 0.03 0.03 0.02 0.01 0.01 0.02 0.02 0.03 0.04 0.02 0.02 0.02 0.02 0.03 0.02 0.02 0.02 0.04 0.08 0.05 0.04
0.00 0.00 0.00 0.00 0.00 0.00 0.00 0.00 0.00 0.01 0.03 0.03 0.05 0.05 0.03 0.03 0.04 0.05 0.05 0.06 0.05 0.04 0.02 0.02 0.02 0.03 0.03 0.03 0.02 0.01 0.02 0.05 0.05 0.05 0.03 0.04 0.02 0.01 0.01 0.02 0.02 0.01 0.01 0.01 0.01 0.01 0.02 0.02 0.03 0.04 0.07 0.04 0.04 0.06
0.00 0.01 0.00 0.00 0.00 0.00 0.01 0.04 0.06 0.06 0.05 0.03 0.04 0.07 0.06 0.05 0.07 0.06 0.04 0.03 0.03 0.03 0.03 0.03 0.03 0.04 0.03 0.02 0.01 0.02 0.03 0.05 0.08 0.09 0.08 0.13 0.12 0.06 0.01 0.01 0.01 0.01 0.01 0.01 0.00 0.01 0.02 0.04 0.05 0.05 0.05 0.03 0.03 0.06
0.00 0.00 0.00 0.01 0.00 0.01 0.05 0.05 0.07 0.04 0.02 0.02 0.02 0.02 0.02 0.03 0.05 0.05 0.05 0.05 0.06 0.08 0.09 0.05 0.05 0.07 0.06 0.05 0.03 0.03 0.04 0.05 0.06 0.05 0.06 0.07 0.07 0.05 0.02 0.01 0.01 0.01 0.01 0.01 0.01 0.01 0.02 0.05 0.07 0.04 0.05 0.05 0.06 0.08
0.01 0.02 0.04 0.04 0.04 0.10 0.09 0.03 0.04 0.03 0.03 0.03 0.03 0.05 0.04 0.05 0.06 0.04 0.04 0.06 0.06 0.07 0.07 0.06 0.06 0.07 0.06 0.07 0.07 0.06 0.08 0.06 0.04 0.05 0.05 0.06 0.05 0.03 0.02 0.01 0.01 0.01 0.01 0.01 0.01 0.01 0.02 0.03 0.04 0.05 0.06 0.07 0.08 0.08
0.03 0.08 0.11 0.07 0.08 0.11 0.11 0.13 0.12 0.10 0.06 0.07 0.06 0.05 0.07 0.07 0.06 0.05 0.04 0.07 0.08 0.07 0.08 0.08 0.08 0.08 0.07 0.07 0.06 0.05 0.05 0.04 0.03 0.03 0.03 0.03 0.03 0.03 0.03 0.01 0.01 0.01 0.01 0.01 0.01 0.01 0.01 0.02 0.04 0.06 0.07 0.08 0.08 0.08
0.02 0.03 0.07 0.09 0.08 0.12 0.17 0.18 0.16 0.12 0.09 0.07 0.06 0.06 0.07 0.08 0.06 0.05 0.03 0.07 0.10 0.11 0.10 0.09 0.08 0.09 0.09 0.08 0.06 0.05 0.04 0.03 0.03 0.03 0.02 0.02 0.01 0.01 0.01 0.01 0.01 0.01 0.01 0.01 0.02 0.02 0.02 0.02 0.03 0.04 0.04 0.05 0.05 0.04